Location: Newark
(23.1300°N, 73.6109°E)
Time: 22:57:39
(UTC+00:00)

NOAA 18 - Pass Details

Date: 18 June 2021
Orbit: 840 x 861 km, 99.0° (Epoch: 27 July)

Event Time Altitude Azimuth Distance (km) Brightness Sun altitude
Exits shadow 15:43:49 23° 70° (ENE) 1,722 6.5 -22.2°
Drops below altitude 10° 15:48:02 10° 20° (NNE) 2,488 7.9 -22.9°
Sets 15:50:50 0° 6° (N) 3,430 8.8 -23.4°
